Upstream stations:
Downstream station:
SHEF ID: WANO2 Cimarron River near Waynoka, OK
STATION TYPE:
Regulating: Stage = 9.00, Flow = 4005
PRECIP STAGE RIV-FLOW BAT-LOAD
in ft cfs volt
Ccp-Rev Ccp-Rev Ccp-Rev Ccp-Rev
(US/Central)
01/29 00:00 0.00 5.63 32 12.73
01/29 01:00 0.00 5.63 32 12.65
01/29 02:00 0.00 5.62 31 12.65
01/29 03:00 0.00 5.63 32 12.65
01/29 04:00 0.00 5.63 32 12.65
01/29 05:00 0.00 5.63 32 12.65
01/29 06:00 0.00 5.62 31 12.57
01/29 07:00 0.00 5.62 31 12.57
01/29 08:00 0.00 5.63 32 12.57
01/29 09:00 0.00 5.64 34 12.73
01/29 10:00 0.00 5.64 34 13.44
01/29 11:00 0.00 5.63 32 14.00
01/29 12:00 0.00 5.62 31 13.84
01/29 13:00 0.00 5.62 31 13.68
01/29 14:00 0.00 5.61 29 13.68
01/29 15:00 0.00 5.62 31 13.60
01/29 16:00 0.00 5.61 29 13.60
01/29 17:00 0.00 5.64 34 13.60
01/29 18:00 0.00 5.64 34 13.44
01/29 19:00 0.00 5.64 34 13.13
01/29 20:00 0.00 5.64 34 12.89
01/29 21:00 0.00 5.64 34 12.81
01/29 22:00 0.00 5.63 32 12.81
01/29 23:00 0.00 5.63 32 12.73